Location: Waco, TX
(31.5480°N, 97.1670°W)
Time: 22:34:50
(UTC-06:00)

ISS - Pass Details

Date: 19 February 2019
Orbit: 403 x 411 km, 51.6° (Epoch: 22 February)

Event Time Altitude Azimuth Distance (km) Brightness Sun altitude
Rises 15:34:05 0° 313° (NW) 2,323 0.1 30.8°
Reaches altitude 10° 15:36:10 10° 311° (NW) 1,462 -0.8 30.4°
Maximum altitude 15:39:26 74° 226° (SW) 425 -2.9 29.9°
Drops below altitude 10° 15:42:42 10° 142° (SE) 1,459 -0.9 29.3°
Sets 15:44:46 0° 140° (SE) 2,317 0.0 29.0°
